Regional Weather Roundup
Issued by NWS

Home | Current Version | Previous Version | Text Only | Print | Product List | Glossary Off
Versions: 1 2 3 4 5 6 7 8 9 10 11 12 13 14 15 16 17 18 19 20 21 22 23 24 25 26 27 28 29 30 31 32 33 34 35 36 37 38 39 40 41 42 43 44 45 46 47 48 49 50

000
ASUS43 KLSX 192207
RWRMO

WEATHER SUMMARY FOR MISSOURI
NATIONAL WEATHER SERVICE SPRINGFIELD MO
500 PM CDT SUN OCT 19 2014

NOTE: "FAIR" INDICATES FEW OR NO CLOUDS BELOW 12,000 FEET WITH NO
       SIGNIFICANT WEATHER AND/OR OBSTRUCTIONS TO VISIBILITY.
       CURRENT SKY AND/OR WEATHER CONDITIONS ARE NOT AVAILABLE FOR
       CHILLICOTHE AND FARMINGTON.

MOZ001>031-035>038-043-044-053-054-192300-
...NORTHERN AND WESTERN MISSOURI...

CITY           SKY/WX    TMP DP  RH WIND       PRES   REMARKS
KANSAS CTY INT MOSUNNY   67  48  50 SW9       30.01F
KANSAS C DTWN  SUNNY     70  47  43 S9        30.01F
LEE`S SUMMIT   SUNNY     68  46  45 S10       30.03F
ST JOSEPH      CLOUDY    68  46  45 S6        30.00F
CHILLICOTHE      N/A     65  45  48 S8        30.02F
KIRKSVILLE     PTSUNNY   63  46  54 S9        30.03F

$$
MOZ066>068-077>081-088>096-101>105-192300-
...SOUTHWEST MISSOURI...

CITY           SKY/WX    TMP DP  RH WIND       PRES   REMARKS
SPRINGFIELD    MOSUNNY   66  51  58 SW7       30.08F
JOPLIN         MOSUNNY   66  52  60 S9        30.07F

$$
MOZ032>034-039>042-045>050-055>058-069>072-192300-
...CENTRAL MISSOURI...

CITY           SKY/WX    TMP DP  RH WIND       PRES   REMARKS
COLUMBIA       MOSUNNY   64  42  44 S9        30.06F
JEFFERSON CITY SUNNY     67  43  41 S7        30.06F
ROLLA          SUNNY     63  43  48 S9        30.07F
SEDALIA        MOSUNNY   67  44  43 SW12      30.05F
WHITEMAN AFB   MOSUNNY   66  49  53 SW10      30.04F
OSAGE BEACH    SUNNY     66  43  42 SW8       30.07F

$$
MOZ051-052-059>065-192300-
...EAST CENTRAL MISSOURI...

CITY           SKY/WX    TMP DP  RH WIND       PRES   REMARKS
ST LOUIS INTL  PTSUNNY   63  46  54 S7        30.08F
SPIRIT OF STL  PTSUNNY   64  44  48 S5        30.07F
ST CHARLES     PTSUNNY   62  45  53 SW9       30.07F

$$
MOZ072>076-082>087-097>100-106>115-192300-
...SOUTH CENTRAL AND SOUTHEAST MISSOURI...

CITY           SKY/WX    TMP DP  RH WIND       PRES   REMARKS
CAPE GIRARDEAU SUNNY     62  44  51 VRB3      30.12F
FARMINGTON     MOSUNNY   63  45  51 S8        30.11F
POPLAR BLUFF   PTSUNNY   63  43  48 S5        30.11F
WEST PLAINS    CLOUDY    61  44  53 W5        30.12F HAZE

$$



USA.gov is the U.S. government's official web portal to all federal, state and local government web resources and services.